Location: Acequia del Cap
(41.7000°N, 0.6167°E)
Time: 01:19:24
(UTC+00:00)

SL-4 R/B - Pass Details

Date: 07 August 2020
Orbit: 428 x 665 km, 51.6° (Epoch: 22 September)

Event Time Altitude Azimuth Distance (km) Brightness Sun altitude
Exits shadow 03:33:40 -1° 303° (WNW) 2,494 5.2 -14.4°
Rises 03:33:52 0° 303° (WNW) 2,411 5.1 -14.4°
Reaches altitude 10° 03:36:00 10° 300° (WNW) 1,529 4.1 -14.1°
Maximum altitude 03:39:23 65° 219° (SW) 475 1.4 -13.6°
Drops below altitude 10° 03:42:45 10° 136° (SE) 1,527 4.4 -13.0°
Sets 03:44:53 0° 134° (SE) 2,407 5.4 -12.7°
